Terminal Aerodrome Forecast
Issued by NWS Columbia, SC

Home | Current Version | Previous Version | Text Only | Print | Product List | Glossary On
Versions: 1 2 3 4 5 6 7 8 9 10 11 12 13 14 15 16 17 18 19 20 21 22 23 24 25 26 27 28 29 30 31 32 33 34 35 36 37 38 39 40 41 42 43 44
000
FTAK31 PAJN 220500
TAFAGS
TAF
PAGS 220522Z 2206/2306 32006KT P6SM OVC050 WS020/10025KT
     FM221000 13012G22KT P6SM -SHRA BKN035 OVC040 WS020/11035KT
     FM221800 VRB04KT P6SM VCSH BKN070
      AMD NOT SKED=

USA.gov is the U.S. government's official web portal to all federal, state and local government web resources and services.